This is the latest recevied weather packets stored in our database for station/object WX5HOT. If no packets are shown the sender has not sent any weather packets the latest 10 day(s).
| Time | Temp. | Humidity | Pressure | Rain* | Wind** | Luminosity | Snow |
|---|---|---|---|---|---|---|---|
| 1777082108 | 13.89° C | 99% | 1059.6 hPa | 6.1 mm | - | 0 W/m² | - |
| 1777081803 | 13.89° C | 99% | 1061 hPa | 6.1 mm | - | 0 W/m² | - |
| 1777081499 | 13.89° C | 99% | 1061.4 hPa | 6.1 mm | - | 0 W/m² | - |
| 1777081195 | 13.89° C | 99% | 1062.2 hPa | 6.6 mm | - | 0 W/m² | - |
| 1777080894 | 13.89° C | 99% | 1062.1 hPa | 7.87 mm | - | 0 W/m² | - |
| 1777080589 | 13.89° C | 99% | 1061.4 hPa | 8.89 mm | - | 0 W/m² | - |
| 1777080284 | 13.89° C | 99% | 1061 hPa | 6.1 mm | - | 0 W/m² | - |
| 1777079984 | 13.89° C | 99% | 1060.9 hPa | 10.67 mm | - | 0 W/m² | - |
| 1777079683 | 13.89° C | 99% | 1059.9 hPa | 22.86 mm | - | 0 W/m² | - |
| 1777079379 | 13.89° C | 99% | 1058.6 hPa | 23.37 mm | - | 0 W/m² | - |
| 1777079075 | 13.89° C | 99% | 1060.9 hPa | 14.99 mm | - | 0 W/m² | - |
| 1777078772 | 13.89° C | 99% | 1060.7 hPa | 10.67 mm | - | 0 W/m² | - |
| 1777078469 | 14.44° C | 99% | 1060.9 hPa | 1.78 mm | - | 0 W/m² | - |
| 1777078168 | 13.89° C | 99% | 1060.6 hPa | 0 mm | - | 0 W/m² | - |
| 1777077863 | 13.89° C | 99% | 1059.8 hPa | 0 mm | - | 0 W/m² | - |
| 1777077561 | 13.89° C | 99% | 1059.1 hPa | 0 mm | - | 1 W/m² | - |
| 1777077256 | 13.89° C | 99% | 1059.2 hPa | 0 mm | - | 1 W/m² | - |
| 1777076955 | 13.89° C | 99% | 1059.2 hPa | 0 mm | - | 1 W/m² | - |
| 1777076651 | 13.89° C | 99% | 1059 hPa | 0 mm | - | 2 W/m² | - |
| 1777076348 | 13.89° C | 99% | 1059.3 hPa | 0 mm | - | 2 W/m² | - |
| 1777076043 | 13.89° C | 99% | 1058.8 hPa | 0 mm | - | 5 W/m² | - |
| 1777075739 | 13.89° C | 99% | 1058.9 hPa | 0 mm | - | 6 W/m² | - |
| 1777075439 | 13.89° C | 99% | 1058.9 hPa | 0 mm | - | 6 W/m² | - |
* Rain latest hour (hover to see other rain measurements)
** Current wind speed in m/s (hover to see current wind gust speed)